Flag for Greenland Weather past 2 weeks in Ittoqqortoormiit, Greenland

Now
34 °F

Overcast.


Feels Like: 31 °F
Forecast: N/A
Wind: 3 mph from Southwest

Location: Scoresbysund

Current Time: Sep 1, 2015 at 10:43:56 PM

Latest Report: Sep 1, 2015 at 8:00 PM


Visibility: 31 mi

Pressure: 30.27 "Hg

Humidity: 80%

Dew point: 28 °F

Location of IttoqqortoormiitLocation

Historic Weather in Ittoqqortoormiit — Graph

°F

Ittoqqortoormiit temperature yesterday

Maximum temperature yesterday: 37 °F (at 12:00 PM)
Minimum temperature yesterday: 30 °F (at 4:00 AM)
Average temperature yesterday: 34 °F

Past Weeks' High & Low Weather Summary

 TemperatureHumidityPressure
High49 °F (Aug 20, 11:00 AM)99% (Aug 17, 8:00 PM)30.29 "Hg (Aug 17, 8:00 PM)
Low30 °F (Aug 29, 6:00 AM)41% (Aug 20, 3:00 PM)29.59 "Hg (Aug 18, 6:00 AM)
Average38 °F77%30.01 "Hg
* Reported Aug 17 8:00 PM — Sep 1 8:00 PM, Ittoqqortoormiit, Weather by CustomWeather, © 2015

Note: Actual official high and low records may vary slightly from our data, if they occured in-between our weather recording intervals... More about our weather records

Advertising

Ittoqqortoormiit weather history for previous 24 hours

 ConditionsComfort  
Time TempWeatherWind HumidityBarometerVisibility
8:00 PM
Tue, Sep 1
34 °FOvercast.3 mph80%30.27 "Hg31 mi
7:00 PM34 °FOvercast.3 mph80%30.27 "Hg31 mi
6:00 PM34 °FOvercast.3 mph80%30.26 "Hg31 mi
5:00 PM35 °FOvercast.5 mph79%30.27 "Hg31 mi
4:00 PM36 °FOvercast.2 mph77%30.27 "Hg31 mi
3:00 PM36 °FOvercast.7 mph79%30.26 "Hg31 mi
2:00 PM37 °FOvercast.8 mph78%30.25 "Hg28 mi
1:00 PM36 °FOvercast.2 mph77%30.25 "Hg28 mi
12:00 PM36 °FPassing clouds.3 mph79%30.24 "Hg28 mi
11:00 AM35 °FPassing clouds.3 mph80%30.23 "Hg31 mi
10:00 AM35 °FPassing clouds.6 mph84%30.23 "Hg31 mi
9:00 AM33 °FPassing clouds.3 mph91%30.22 "Hg28 mi
8:00 AM33 °FPassing clouds.5 mph88%30.20 "Hg31 mi
7:00 AM33 °FSunny.1 mph87%30.19 "Hg31 mi
6:00 AM32 °FSunny.5 mph81%30.17 "Hg31 mi
5:00 AM33 °FClear.9 mph80%30.16 "Hg31 mi
4:00 AM33 °FClear.13 mph81%30.14 "Hg31 mi
3:00 AM32 °FClear.3 mph83%30.14 "Hg31 mi
2:00 AM33 °FClear.2 mph81%30.13 "Hg31 mi
1:00 AM33 °FClear.6 mph81%30.11 "Hg31 mi
12:00 AM34 °FClear.15 mph76%30.09 "Hg31 mi
11:00 PM
Mon, Aug 31
33 °FClear.16 mph77%30.08 "Hg31 mi
10:00 PM33 °FClear.20 mph80%30.06 "Hg31 mi
Weather by CustomWeather, © 2015

See weather overviewHow to use our weather pages